Regional Weather Roundup
Issued by NWS

Home | Current Version | Previous Version | Text Only | Print | Product List | Glossary On
Versions: 1 2 3 4 5 6 7 8 9 10 11 12 13 14 15 16 17 18 19 20 21 22 23 24 25 26 27
000
ASUS45 KBOI 241410
RWRID

IDAHO REGIONAL WEATHER ROUNDUP
NATIONAL WEATHER SERVICE BOISE ID
700 AM MST SAT FEB 24 2018

NOTE: "FAIR" INDICATES FEW OR NO CLOUDS BELOW 12000 FEET
WITH NO SIGNIFICANT WEATHER AND/OR OBSTRUCTIONS TO VISIBILITY

IDZ012-014-241500-
SOUTHWEST IDAHO


CITY           SKY/WX    TMP DP  RH WIND       PRES   REMARKS
BOISE          FLURRIES  25  21  85 E13       30.07F WCI  14
CALDWELL       CLOUDY    28  17  63 E14       30.08F WCI  17
MOUNTAIN HOME  CLOUDY    24  23  96 E7        30.09F WCI  16
$$

IDZ016-017-241500-
SOUTHCENTRAL IDAHO


CITY           SKY/WX    TMP DP  RH WIND       PRES   REMARKS
BURLEY         CLOUDY    22  11  62 SW15      30.06F WCI   9
JEROME         CLOUDY    23  11  60 S3        30.07F
TWIN FALLS     CLOUDY    22  14  71 S9        30.07F WCI  12
$$

IDZ019>023-241500-
SOUTHEAST IDAHO


CITY           SKY/WX    TMP DP  RH WIND       PRES   REMARKS
IDAHO FALLS    CLOUDY    15   8  73 SW17      30.01F WCI  -1
POCATELLO      PTCLDY    20   8  60 SW14      30.05F WCI   7
REXBURG        CLOUDY    14   9  80 SW12      29.99F WCI   0
$$

IDZ006-010-011-018-031-032-241500-
CENTRAL IDAHO MOUNTAINS


CITY           SKY/WX    TMP DP  RH WIND       PRES   REMARKS
MCCALL         LGT SNOW  15  12  88 CALM      29.91F VSB 3/4
HAILEY         MOCLDY     9   3  78 NW3       29.99
STANLEY          N/A     11   7  84 CALM      29.88F
SALMON         CLOUDY    19  13  77 N3        29.94F
CHALLIS        CLOUDY    20   6  55 CALM      29.90F
$$

IDZ002-004-006-007-026-241500-
NORTHERN IDAHO


CITY           SKY/WX    TMP DP  RH WIND       PRES   REMARKS
LEWISTON       CLOUDY    31  24  75 NE5       29.91F WCI  26
LOWELL           N/A     26  25  96 CALM      30.02F
COEUR D`ALENE  FLURRIES  24  21  88 SE8       29.87F WCI  15
MULLAN PASS    LGT SNOW  11  10  96 VRB7      29.68F FOG     WCI   0
$$




USA.gov is the U.S. government's official web portal to all federal, state and local government web resources and services.